Wetterdaten: Donnerstag, 12.12.2013
Datum Zeit Temperatur Luftfeuchte Luftdruck Regen Wind Richtung Richtung Taupunkt Windchill Windben
12.12.2013 00:00 -5,6 C 91 % 1031,6 hPa 0,0 l/m 0,2 km/h (0 Bft) N 360 -6,8 C -5,1 C 0,0 km/h (0 Bft)
12.12.2013 00:05 -5,3 C 91 % 1031,5 hPa 0,0 l/m 0,2 km/h (0 Bft) N-NW 337 -6,5 C -5,2 C 0,0 km/h (0 Bft)
12.12.2013 00:10 -5,1 C 91 % 1031,5 hPa 0,0 l/m 0,2 km/h (0 Bft) N-NO 22 -6,3 C -5,2 C 0,0 km/h (0 Bft)
12.12.2013 00:15 -5,3 C 91 % 1031,5 hPa 0,0 l/m 0,0 km/h (0 Bft) N 360 -6,5 C -5,2 C 0,0 km/h (0 Bft)
12.12.2013 00:20 -5,5 C 90 % 1031,5 hPa 0,0 l/m 0,0 km/h (0 Bft) N 360 -6,9 C -5,1 C 0,0 km/h (0 Bft)
12.12.2013 00:25 -5,2 C 90 % 1031,5 hPa 0,0 l/m 0,0 km/h (0 Bft) N-NO 22 -6,6 C -5,1 C 0,0 km/h (0 Bft)
12.12.2013 00:30 -4,3 C 91 % 1031,5 hPa 0,0 l/m 0,2 km/h (0 Bft) SO 135 -5,5 C -5,1 C 0,0 km/h (0 Bft)
12.12.2013 00:35 -4,9 C 91 % 1031,5 hPa 0,0 l/m 0,2 km/h (0 Bft) S-SW 202 -6,1 C -4,9 C 0,0 km/h (0 Bft)
12.12.2013 00:40 -5,7 C 90 % 1031,5 hPa 0,0 l/m 0,2 km/h (0 Bft) O-NO 67 -7,1 C -5,3 C 2,7 km/h (1 Bft)
12.12.2013 00:45 -4,8 C 91 % 1031,7 hPa 0,0 l/m 0,5 km/h (0 Bft) NO 45 -6,0 C -5,1 C 0,0 km/h (0 Bft)
12.12.2013 00:50 -5,0 C 91 % 1031,7 hPa 0,0 l/m 0,5 km/h (0 Bft) N 360 -6,2 C -4,9 C 3,5 km/h (1 Bft)
12.12.2013 00:55 -5,4 C 90 % 1031,7 hPa 0,0 l/m 0,0 km/h (0 Bft) N 360 -6,8 C -5,0 C 0,0 km/h (0 Bft)
12.12.2013 01:00 -5,6 C 90 % 1031,7 hPa 0,0 l/m 0,0 km/h (0 Bft) N 360 -7,0 C -5,1 C 0,0 km/h (0 Bft)
12.12.2013 01:05 -5,3 C 90 % 1031,6 hPa 0,0 l/m 0,0 km/h (0 Bft) N 360 -6,7 C -5,1 C 0,0 km/h (0 Bft)
12.12.2013 01:10 -5,3 C 90 % 1031,6 hPa 0,0 l/m 0,0 km/h (0 Bft) N 360 -6,7 C -5,0 C 0,0 km/h (0 Bft)
12.12.2013 01:15 -5,3 C 90 % 1031,6 hPa 0,0 l/m 0,0 km/h (0 Bft) N 360 -6,7 C -5,0 C 0,0 km/h (0 Bft)
12.12.2013 01:20 -4,3 C 91 % 1031,6 hPa 0,0 l/m 0,0 km/h (0 Bft) O-NO 67 -5,5 C -4,9 C 0,0 km/h (0 Bft)
12.12.2013 01:25 -5,1 C 91 % 1031,3 hPa 0,0 l/m 0,3 km/h (0 Bft) N-NW 337 -6,3 C -4,9 C 0,0 km/h (0 Bft)
12.12.2013 01:30 -5,3 C 90 % 1031,3 hPa 0,0 l/m 0,2 km/h (0 Bft) N-NW 337 -6,7 C -5,1 C 0,0 km/h (0 Bft)
12.12.2013 01:35 -5,1 C 91 % 1031,3 hPa 0,0 l/m 0,0 km/h (0 Bft) N 360 -6,3 C -5,1 C 0,0 km/h (0 Bft)
12.12.2013 01:40 -4,8 C 91 % 1031,3 hPa 0,0 l/m 0,0 km/h (0 Bft) N-NO 22 -6,0 C -5,0 C 0,0 km/h (0 Bft)
12.12.2013 01:45 -4,9 C 91 % 1031,2 hPa 0,0 l/m 0,0 km/h (0 Bft) N 360 -6,1 C -4,8 C 0,0 km/h (0 Bft)
12.12.2013 01:50 -4,8 C 91 % 1031,2 hPa 0,0 l/m 0,2 km/h (0 Bft) N 360 -6,0 C -4,8 C 1,8 km/h (1 Bft)
12.12.2013 01:55 -5,0 C 91 % 1031,2 hPa 0,0 l/m 0,2 km/h (0 Bft) N 360 -6,2 C -4,7 C 0,0 km/h (0 Bft)
12.12.2013 02:00 -5,0 C 91 % 1031,2 hPa 0,0 l/m 0,2 km/h (0 Bft) NO 45 -6,2 C -4,8 C 0,0 km/h (0 Bft)
12.12.2013 02:05 -4,9 C 91 % 1030,9 hPa 0,0 l/m 0,0 km/h (0 Bft) N-NW 337 -6,1 C -4,8 C 0,0 km/h (0 Bft)
12.12.2013 02:10 -4,5 C 91 % 1030,9 hPa 0,0 l/m 0,5 km/h (0 Bft) O-NO 67 -5,7 C -4,8 C 0,0 km/h (0 Bft)
12.12.2013 02:15 -5,2 C 91 % 1030,9 hPa 0,0 l/m 0,6 km/h (0 Bft) W-SW 247 -6,4 C -4,8 C 0,0 km/h (0 Bft)
12.12.2013 02:20 -5,4 C 91 % 1030,9 hPa 0,0 l/m 0,3 km/h (0 Bft) W-SW 247 -6,6 C -5,0 C 0,0 km/h (0 Bft)
12.12.2013 02:25 -4,9 C 91 % 1031,2 hPa 0,0 l/m 1,0 km/h (0 Bft) O-NO 67 -6,1 C -5,1 C 5,0 km/h (1 Bft)
12.12.2013 02:30 -3,3 C 92 % 1031,2 hPa 0,0 l/m 4,2 km/h (1 Bft) O 90 -4,4 C -6,0 C 8,7 km/h (2 Bft)
12.12.2013 02:35 -2,9 C 92 % 1031,2 hPa 0,0 l/m 6,0 km/h (2 Bft) O-NO 67 -4,0 C -6,1 C 7,4 km/h (2 Bft)
12.12.2013 02:40 -3,5 C 92 % 1031,2 hPa 0,0 l/m 5,3 km/h (1 Bft) W-NW 292 -4,6 C -5,0 C 3,9 km/h (1 Bft)
12.12.2013 02:45 -4,3 C 92 % 1030,9 hPa 0,0 l/m 3,7 km/h (1 Bft) O-SO 112 -5,4 C -4,9 C 4,3 km/h (1 Bft)
12.12.2013 02:50 -4,3 C 92 % 1030,9 hPa 0,0 l/m 1,9 km/h (1 Bft) W 270 -5,4 C -3,9 C 0,0 km/h (0 Bft)
12.12.2013 02:55 -4,4 C 92 % 1030,9 hPa 0,0 l/m 1,9 km/h (1 Bft) N-NO 22 -5,5 C -4,2 C 5,0 km/h (1 Bft)
12.12.2013 03:00 -4,3 C 92 % 1030,9 hPa 0,0 l/m 1,3 km/h (1 Bft) NO 45 -5,4 C -4,2 C 0,0 km/h (0 Bft)
12.12.2013 03:05 -4,4 C 92 % 1030,8 hPa 0,0 l/m 0,8 km/h (0 Bft) N-NO 22 -5,5 C -4,3 C 0,0 km/h (0 Bft)
12.12.2013 03:10 -4,6 C 92 % 1030,8 hPa 0,0 l/m 0,6 km/h (0 Bft) O 90 -5,7 C -4,3 C 3,9 km/h (1 Bft)
12.12.2013 03:15 -4,0 C 92 % 1030,8 hPa 0,0 l/m 1,8 km/h (1 Bft) NO 45 -5,1 C -4,2 C 2,7 km/h (1 Bft)
12.12.2013 03:20 -4,3 C 92 % 1030,8 hPa 0,0 l/m 1,6 km/h (1 Bft) O 90 -5,4 C -4,1 C 0,0 km/h (0 Bft)
12.12.2013 03:25 -4,7 C 92 % 1030,5 hPa 0,0 l/m 0,3 km/h (0 Bft) NO 45 -5,8 C -4,2 C 0,0 km/h (0 Bft)
12.12.2013 03:30 -4,9 C 91 % 1030,5 hPa 0,0 l/m 0,3 km/h (0 Bft) NW 315 -6,1 C -4,4 C 0,0 km/h (0 Bft)
12.12.2013 03:35 -4,7 C 91 % 1030,5 hPa 0,0 l/m 1,1 km/h (1 Bft) O-NO 67 -5,9 C -4,6 C 2,4 km/h (1 Bft)
12.12.2013 03:40 -4,9 C 91 % 1030,5 hPa 0,0 l/m 0,8 km/h (0 Bft) N-NW 337 -6,1 C -4,6 C 0,0 km/h (0 Bft)
12.12.2013 03:45 -5,3 C 91 % 1030,5 hPa 0,0 l/m 0,5 km/h (0 Bft) N 360 -6,5 C -4,8 C 0,0 km/h (0 Bft)
12.12.2013 03:50 -4,5 C 91 % 1030,5 hPa 0,0 l/m 1,1 km/h (1 Bft) NO 45 -5,7 C -4,8 C 2,4 km/h (1 Bft)
12.12.2013 03:55 -4,1 C 91 % 1030,5 hPa 0,0 l/m 1,0 km/h (0 Bft) O 90 -5,3 C -4,7 C 0,0 km/h (0 Bft)
12.12.2013 04:00 -3,9 C 92 % 1030,5 hPa 0,0 l/m 1,1 km/h (1 Bft) N 360 -5,0 C -4,3 C 3,1 km/h (1 Bft)
12.12.2013 04:05 -4,9 C 91 % 1030,4 hPa 0,0 l/m 2,3 km/h (1 Bft) S-SO 157 -6,1 C -4,4 C 5,1 km/h (1 Bft)
12.12.2013 04:10 -4,6 C 91 % 1030,4 hPa 0,0 l/m 2,9 km/h (1 Bft) N 360 -5,8 C -5,3 C 5,8 km/h (2 Bft)
12.12.2013 04:15 -4,2 C 92 % 1030,4 hPa 0,0 l/m 2,6 km/h (1 Bft) NO 45 -5,3 C -4,8 C 0,0 km/h (0 Bft)
12.12.2013 04:20 -4,8 C 91 % 1030,4 hPa 0,0 l/m 2,6 km/h (1 Bft) S 180 -6,0 C -4,9 C 3,2 km/h (1 Bft)
12.12.2013 04:23 -4,4 C 92 % 1030,2 hPa 0,0 l/m 1,8 km/h (1 Bft) O-SO 112 -5,5 C -4,6 C 0,0 km/h (0 Bft)
12.12.2013 04:25 -4,4 C 92 % 1030,2 hPa 0,0 l/m 1,8 km/h (1 Bft) O-SO 112 -5,5 C -4,6 C 0,0 km/h (0 Bft)
12.12.2013 04:30 -4,9 C 91 % 1030,2 hPa 0,0 l/m 1,8 km/h (1 Bft) N-NO 22 -6,1 C -4,7 C 0,0 km/h (0 Bft)
12.12.2013 04:35 -4,8 C 91 % 1030,2 hPa 0,0 l/m 1,0 km/h (0 Bft) N-NW 337 -6,0 C -4,6 C 0,0 km/h (0 Bft)
12.12.2013 04:40 -5,0 C 91 % 1030,2 hPa 0,0 l/m 0,0 km/h (0 Bft) N 360 -6,2 C -4,8 C 0,0 km/h (0 Bft)
12.12.2013 04:45 -4,9 C 91 % 1030,3 hPa 0,0 l/m 0,0 km/h (0 Bft) NO 45 -6,1 C -4,9 C 0,0 km/h (0 Bft)
12.12.2013 04:50 -5,2 C 91 % 1030,3 hPa 0,0 l/m 0,0 km/h (0 Bft) NO 45 -6,4 C -5,1 C 0,0 km/h (0 Bft)
12.12.2013 04:55 -5,0 C 91 % 1030,3 hPa 0,0 l/m 0,0 km/h (0 Bft) NO 45 -6,2 C -5,0 C 0,0 km/h (0 Bft)
12.12.2013 05:00 -4,8 C 91 % 1030,3 hPa 0,0 l/m 0,6 km/h (0 Bft) W 270 -6,0 C -4,8 C 1,6 km/h (1 Bft)
12.12.2013 05:05 -5,1 C 91 % 1030,3 hPa 0,0 l/m 1,4 km/h (1 Bft) NO 45 -6,3 C -4,9 C 1,6 km/h (1 Bft)
12.12.2013 05:10 -5,4 C 91 % 1030,3 hPa 0,0 l/m 0,8 km/h (0 Bft) N 360 -6,6 C -5,0 C 0,0 km/h (0 Bft)
12.12.2013 05:15 -5,3 C 91 % 1030,3 hPa 0,0 l/m 0,8 km/h (0 Bft) O 90 -6,5 C -5,3 C 2,1 km/h (1 Bft)
12.12.2013 05:20 -4,6 C 91 % 1030,3 hPa 0,0 l/m 1,4 km/h (1 Bft) N-NO 22 -5,8 C -5,2 C 0,0 km/h (0 Bft)
12.12.2013 05:25 -5,1 C 91 % 1030,2 hPa 0,0 l/m 1,4 km/h (1 Bft) S 180 -6,3 C -5,0 C 4,0 km/h (1 Bft)
12.12.2013 05:30 -5,8 C 91 % 1030,2 hPa 0,0 l/m 1,4 km/h (1 Bft) S-SW 202 -7,0 C -5,2 C 0,0 km/h (0 Bft)
12.12.2013 05:35 -6,1 C 90 % 1030,2 hPa 0,0 l/m 1,4 km/h (1 Bft) O-SO 112 -7,5 C -5,6 C 0,0 km/h (0 Bft)
12.12.2013 05:40 -6,2 C 90 % 1030,2 hPa 0,0 l/m 0,3 km/h (0 Bft) O-SO 112 -7,6 C -5,8 C 0,0 km/h (0 Bft)
12.12.2013 05:45 -6,3 C 90 % 1030,1 hPa 0,0 l/m 0,2 km/h (0 Bft) S 180 -7,7 C -6,0 C 0,0 km/h (0 Bft)
12.12.2013 05:50 -6,1 C 90 % 1030,1 hPa 0,0 l/m 0,3 km/h (0 Bft) NO 45 -7,5 C -6,2 C 0,0 km/h (0 Bft)
12.12.2013 05:55 -5,9 C 90 % 1030,1 hPa 0,0 l/m 0,3 km/h (0 Bft) NO 45 -7,3 C -6,0 C 0,0 km/h (0 Bft)
12.12.2013 06:00 -5,1 C 90 % 1030,1 hPa 0,0 l/m 0,3 km/h (0 Bft) O 90 -6,5 C -5,4 C 0,0 km/h (0 Bft)
12.12.2013 06:05 -5,5 C 90 % 1030,0 hPa 0,0 l/m 0,3 km/h (0 Bft) S-SO 157 -6,9 C -5,3 C 0,0 km/h (0 Bft)
12.12.2013 06:10 -6,2 C 90 % 1030,0 hPa 0,0 l/m 0,0 km/h (0 Bft) S-SO 157 -7,6 C -5,6 C 0,0 km/h (0 Bft)
12.12.2013 06:15 -6,2 C 90 % 1030,0 hPa 0,0 l/m 0,0 km/h (0 Bft) S-SO 157 -7,6 C -5,8 C 0,0 km/h (0 Bft)
12.12.2013 06:20 -6,2 C 90 % 1030,0 hPa 0,0 l/m 0,0 km/h (0 Bft) O-NO 67 -7,6 C -6,0 C 0,0 km/h (0 Bft)
12.12.2013 06:25 -6,3 C 90 % 1030,0 hPa 0,0 l/m 0,0 km/h (0 Bft) O 90 -7,7 C -6,0 C 0,0 km/h (0 Bft)
12.12.2013 06:30 -6,5 C 89 % 1030,0 hPa 0,0 l/m 0,0 km/h (0 Bft) S-SO 157 -8,0 C -6,1 C 0,0 km/h (0 Bft)
12.12.2013 06:35 -6,5 C 89 % 1030,0 hPa 0,0 l/m 0,0 km/h (0 Bft) S-SO 157 -8,0 C -6,1 C 0,0 km/h (0 Bft)
12.12.2013 06:40 -6,2 C 90 % 1030,0 hPa 0,0 l/m 0,0 km/h (0 Bft) O-SO 112 -7,6 C -6,2 C 0,0 km/h (0 Bft)
12.12.2013 06:45 -6,0 C 90 % 1029,6 hPa 0,0 l/m 0,0 km/h (0 Bft) S 180 -7,4 C -6,0 C 0,0 km/h (0 Bft)
12.12.2013 06:50 -6,5 C 89 % 1029,6 hPa 0,0 l/m 0,2 km/h (0 Bft) N-NW 337 -8,0 C -6,0 C 0,0 km/h (0 Bft)
12.12.2013 06:55 -6,5 C 89 % 1029,6 hPa 0,0 l/m 0,2 km/h (0 Bft) NW 315 -8,0 C -6,0 C 0,0 km/h (0 Bft)
12.12.2013 07:00 -6,2 C 89 % 1029,6 hPa 0,0 l/m 0,0 km/h (0 Bft) NO 45 -7,7 C -6,1 C 0,0 km/h (0 Bft)
12.12.2013 07:05 -6,1 C 89 % 1029,7 hPa 0,0 l/m 0,2 km/h (0 Bft) N 360 -7,6 C -6,1 C 3,1 km/h (1 Bft)
12.12.2013 07:10 -6,1 C 90 % 1029,7 hPa 0,0 l/m 0,5 km/h (0 Bft) NW 315 -7,5 C -5,7 C 0,0 km/h (0 Bft)
12.12.2013 07:15 -6,1 C 90 % 1029,7 hPa 0,0 l/m 0,5 km/h (0 Bft) W-NW 292 -7,5 C -5,6 C 0,0 km/h (0 Bft)
12.12.2013 07:20 -6,3 C 90 % 1029,7 hPa 0,0 l/m 0,2 km/h (0 Bft) W-NW 292 -7,7 C -5,8 C 2,4 km/h (1 Bft)
12.12.2013 07:25 -6,6 C 89 % 1029,7 hPa 0,0 l/m 0,2 km/h (0 Bft) W-NW 292 -8,1 C -5,9 C 0,0 km/h (0 Bft)
12.12.2013 07:30 -6,0 C 90 % 1029,7 hPa 0,0 l/m 0,5 km/h (0 Bft) N-NO 22 -7,4 C -6,0 C 1,6 km/h (1 Bft)
12.12.2013 07:35 -6,1 C 90 % 1029,7 hPa 0,0 l/m 0,3 km/h (0 Bft) W 270 -7,5 C -5,9 C 0,0 km/h (0 Bft)
12.12.2013 07:40 -5,8 C 90 % 1029,7 hPa 0,0 l/m 0,5 km/h (0 Bft) O 90 -7,2 C -5,8 C 0,0 km/h (0 Bft)
12.12.2013 07:45 -6,1 C 90 % 1029,8 hPa 0,0 l/m 0,5 km/h (0 Bft) O 90 -7,5 C -5,8 C 0,0 km/h (0 Bft)
12.12.2013 07:50 -6,6 C 89 % 1029,8 hPa 0,0 l/m 0,0 km/h (0 Bft) NO 45 -8,1 C -6,0 C 0,0 km/h (0 Bft)
12.12.2013 07:55 -6,7 C 89 % 1029,8 hPa 0,0 l/m 0,0 km/h (0 Bft) NO 45 -8,2 C -6,2 C 0,0 km/h (0 Bft)
12.12.2013 08:00 -6,2 C 89 % 1029,8 hPa 0,0 l/m 0,0 km/h (0 Bft) NO 45 -7,7 C -6,0 C 0,0 km/h (0 Bft)
12.12.2013 08:05 -6,0 C 89 % 1029,8 hPa 0,0 l/m 0,0 km/h (0 Bft) NO 45 -7,5 C -5,8 C 0,0 km/h (0 Bft)
12.12.2013 08:10 -6,5 C 89 % 1029,8 hPa 0,0 l/m 0,0 km/h (0 Bft) NO 45 -8,0 C -5,8 C 0,0 km/h (0 Bft)
12.12.2013 08:15 -6,6 C 89 % 1029,8 hPa 0,0 l/m 0,0 km/h (0 Bft) NO 45 -8,1 C -6,0 C 0,0 km/h (0 Bft)
12.12.2013 08:20 -6,8 C 89 % 1029,8 hPa 0,0 l/m 0,0 km/h (0 Bft) O 90 -8,3 C -6,4 C 0,0 km/h (0 Bft)
12.12.2013 08:25 -6,9 C 89 % 1029,8 hPa 0,0 l/m 0,0 km/h (0 Bft) O 90 -8,4 C -6,4 C 0,0 km/h (0 Bft)
12.12.2013 08:30 -6,5 C 89 % 1029,8 hPa 0,0 l/m 0,0 km/h (0 Bft) O 90 -8,0 C -6,2 C 0,0 km/h (0 Bft)
12.12.2013 08:35 -6,6 C 89 % 1029,8 hPa 0,0 l/m 0,0 km/h (0 Bft) O 90 -8,1 C -6,2 C 0,0 km/h (0 Bft)
12.12.2013 08:40 -6,8 C 89 % 1029,8 hPa 0,0 l/m 0,0 km/h (0 Bft) O 90 -8,3 C -6,1 C 0,0 km/h (0 Bft)
12.12.2013 08:45 -6,4 C 89 % 1029,8 hPa 0,0 l/m 0,0 km/h (0 Bft) NO 45 -7,9 C -6,0 C 0,0 km/h (0 Bft)
12.12.2013 08:50 -6,4 C 89 % 1029,8 hPa 0,0 l/m 0,2 km/h (0 Bft) NO 45 -7,9 C -5,9 C 1,8 km/h (1 Bft)
12.12.2013 08:55 -6,4 C 89 % 1029,8 hPa 0,0 l/m 0,2 km/h (0 Bft) N-NW 337 -7,9 C -5,6 C 0,0 km/h (0 Bft)
12.12.2013 09:00 -6,2 C 89 % 1029,8 hPa 0,0 l/m 0,2 km/h (0 Bft) N 360 -7,7 C -5,5 C 0,0 km/h (0 Bft)
12.12.2013 09:05 -5,5 C 89 % 1029,9 hPa 0,0 l/m 0,2 km/h (0 Bft) N-NO 22 -7,0 C -5,4 C 0,0 km/h (0 Bft)
12.12.2013 09:10 -5,4 C 90 % 1029,9 hPa 0,0 l/m 0,2 km/h (0 Bft) N-NO 22 -6,8 C -5,0 C 0,0 km/h (0 Bft)
12.12.2013 09:15 -5,2 C 90 % 1029,9 hPa 0,0 l/m 0,0 km/h (0 Bft) N 360 -6,6 C -4,8 C 0,0 km/h (0 Bft)
12.12.2013 09:19 -5,3 C 90 % 1029,9 hPa 0,0 l/m 0,0 km/h (0 Bft) N-NW 337 -6,7 C -4,7 C 0,0 km/h (0 Bft)
12.12.2013 09:20 -5,3 C 90 % 1029,9 hPa 0,0 l/m 0,0 km/h (0 Bft) N-NW 337 -6,7 C -4,7 C 0,0 km/h (0 Bft)
12.12.2013 09:25 -5,6 C 90 % 1030,1 hPa 0,0 l/m 0,0 km/h (0 Bft) N-NW 337 -7,0 C -4,8 C 0,0 km/h (0 Bft)
12.12.2013 09:30 -5,4 C 90 % 1030,1 hPa 0,0 l/m 0,0 km/h (0 Bft) N-NW 337 -6,8 C -4,8 C 0,0 km/h (0 Bft)
12.12.2013 09:35 -5,2 C 90 % 1030,1 hPa 0,0 l/m 0,0 km/h (0 Bft) N 360 -6,6 C -4,8 C 0,0 km/h (0 Bft)
12.12.2013 09:40 -4,9 C 90 % 1030,1 hPa 0,0 l/m 0,0 km/h (0 Bft) O-NO 67 -6,3 C -4,6 C 0,0 km/h (0 Bft)
12.12.2013 09:45 -4,9 C 90 % 1030,1 hPa 0,0 l/m 0,0 km/h (0 Bft) O-NO 67 -6,3 C -4,4 C 0,0 km/h (0 Bft)
12.12.2013 09:50 -4,7 C 90 % 1030,1 hPa 0,0 l/m 0,0 km/h (0 Bft) O-NO 67 -6,1 C -4,3 C 0,0 km/h (0 Bft)
12.12.2013 09:55 -4,8 C 90 % 1030,1 hPa 0,0 l/m 0,0 km/h (0 Bft) NO 45 -6,2 C -4,2 C 0,0 km/h (0 Bft)
12.12.2013 10:00 -4,3 C 91 % 1030,1 hPa 0,0 l/m 0,0 km/h (0 Bft) NO 45 -5,5 C -4,0 C 0,0 km/h (0 Bft)
12.12.2013 10:05 -4,0 C 91 % 1029,4 hPa 0,0 l/m 0,0 km/h (0 Bft) N-NO 22 -5,2 C -3,8 C 0,0 km/h (0 Bft)
12.12.2013 10:10 -3,9 C 91 % 1029,4 hPa 0,0 l/m 0,0 km/h (0 Bft) N 360 -5,1 C -3,5 C 0,0 km/h (0 Bft)
12.12.2013 10:15 -3,9 C 91 % 1029,4 hPa 0,0 l/m 0,0 km/h (0 Bft) N 360 -5,1 C -3,3 C 0,0 km/h (0 Bft)
12.12.2013 10:20 -3,4 C 92 % 1029,4 hPa 0,0 l/m 0,0 km/h (0 Bft) N 360 -4,5 C -3,2 C 0,0 km/h (0 Bft)
12.12.2013 10:25 -3,2 C 92 % 1030,1 hPa 0,0 l/m 0,2 km/h (0 Bft) NO 45 -4,3 C -3,1 C 2,3 km/h (1 Bft)
12.12.2013 10:30 -2,9 C 92 % 1030,1 hPa 0,0 l/m 0,5 km/h (0 Bft) O-NO 67 -4,0 C -2,9 C 0,0 km/h (0 Bft)
12.12.2013 10:35 -2,7 C 92 % 1030,1 hPa 0,0 l/m 0,5 km/h (0 Bft) NO 45 -3,8 C -2,7 C 0,0 km/h (0 Bft)
12.12.2013 10:40 -2,9 C 92 % 1030,1 hPa 0,0 l/m 0,0 km/h (0 Bft) NO 45 -4,0 C -2,6 C 0,0 km/h (0 Bft)
12.12.2013 10:45 -2,7 C 92 % 1029,9 hPa 0,0 l/m 0,0 km/h (0 Bft) O-NO 67 -3,8 C -2,5 C 0,0 km/h (0 Bft)
12.12.2013 10:50 -2,7 C 92 % 1029,9 hPa 0,0 l/m 0,0 km/h (0 Bft) O-NO 67 -3,8 C -2,3 C 0,0 km/h (0 Bft)
12.12.2013 10:55 -2,4 C 92 % 1029,9 hPa 0,0 l/m 0,0 km/h (0 Bft) N-NO 22 -3,5 C -2,2 C 0,0 km/h (0 Bft)
12.12.2013 11:00 -2,2 C 93 % 1029,9 hPa 0,0 l/m 0,5 km/h (0 Bft) N 360 -3,2 C -2,0 C 2,7 km/h (1 Bft)
12.12.2013 11:05 -1,9 C 93 % 1029,8 hPa 0,0 l/m 1,8 km/h (1 Bft) NO 45 -2,9 C -1,9 C 3,9 km/h (1 Bft)
12.12.2013 11:10 -1,5 C 93 % 1029,8 hPa 0,0 l/m 2,3 km/h (1 Bft) N-NO 22 -2,5 C -1,6 C 0,0 km/h (0 Bft)
12.12.2013 11:15 -1,7 C 93 % 1029,8 hPa 0,0 l/m 1,3 km/h (1 Bft) O-NO 67 -2,7 C -1,4 C 0,0 km/h (0 Bft)
12.12.2013 11:20 -1,3 C 93 % 1029,8 hPa 0,0 l/m 0,8 km/h (0 Bft) O 90 -2,3 C -1,3 C 2,3 km/h (1 Bft)
12.12.2013 11:25 -1,1 C 93 % 1029,4 hPa 0,0 l/m 1,1 km/h (1 Bft) O-NO 67 -2,1 C -1,1 C 0,0 km/h (0 Bft)
12.12.2013 11:30 -1,1 C 93 % 1029,4 hPa 0,0 l/m 1,0 km/h (0 Bft) NO 45 -2,1 C -1,1 C 2,3 km/h (1 Bft)
12.12.2013 11:35 -0,8 C 93 % 1029,4 hPa 0,0 l/m 0,6 km/h (0 Bft) N-NO 22 -1,8 C -0,9 C 0,0 km/h (0 Bft)
12.12.2013 11:40 -0,9 C 93 % 1029,4 hPa 0,0 l/m 0,3 km/h (0 Bft) O-NO 67 -1,9 C -0,7 C 0,0 km/h (0 Bft)
12.12.2013 11:45 -0,6 C 93 % 1029,4 hPa 0,0 l/m 0,0 km/h (0 Bft) O-NO 67 -1,6 C -0,6 C 0,0 km/h (0 Bft)
12.12.2013 11:50 -0,5 C 94 % 1029,4 hPa 0,0 l/m 0,0 km/h (0 Bft) O-NO 67 -1,3 C -0,4 C 0,0 km/h (0 Bft)
12.12.2013 11:55 -0,4 C 94 % 1029,4 hPa 0,0 l/m 0,0 km/h (0 Bft) NO 45 -1,2 C -0,4 C 2,1 km/h (1 Bft)
12.12.2013 12:00 -0,1 C 94 % 1029,4 hPa 0,0 l/m 1,8 km/h (1 Bft) O 90 -0,9 C -0,2 C 3,1 km/h (1 Bft)
12.12.2013 12:05 0,2 C 94 % 1029,3 hPa 0,0 l/m 2,6 km/h (1 Bft) N-NO 22 -0,6 C -0,2 C 0,0 km/h (0 Bft)
12.12.2013 12:10 0,1 C 94 % 1029,3 hPa 0,0 l/m 2,7 km/h (1 Bft) NO 45 -0,7 C -0,2 C 3,1 km/h (1 Bft)
12.12.2013 12:15 0,1 C 94 % 1029,3 hPa 0,0 l/m 2,7 km/h (1 Bft) NO 45 -0,7 C -0,2 C 3,1 km/h (1 Bft)
12.12.2013 12:20 1,1 C 93 % 1029,3 hPa 0,0 l/m 2,6 km/h (1 Bft) O-NO 67 0,1 C 0,3 C 2,6 km/h (1 Bft)
12.12.2013 12:25 1,4 C 93 % 1029,2 hPa 0,0 l/m 2,4 km/h (1 Bft) O 90 0,4 C 0,5 C 2,4 km/h (1 Bft)
12.12.2013 12:30 1,5 C 93 % 1029,2 hPa 0,0 l/m 1,4 km/h (1 Bft) NO 45 0,5 C 0,7 C 0,0 km/h (0 Bft)
12.12.2013 12:35 1,7 C 93 % 1029,2 hPa 0,0 l/m 1,4 km/h (1 Bft) NO 45 0,7 C 0,8 C 2,6 km/h (1 Bft)
12.12.2013 12:40 2,1 C 92 % 1029,2 hPa 0,0 l/m 2,9 km/h (1 Bft) O-NO 67 0,9 C 0,8 C 3,4 km/h (1 Bft)
12.12.2013 12:45 2,1 C 92 % 1029,0 hPa 0,0 l/m 2,9 km/h (1 Bft) NO 45 0,9 C 1,1 C 3,5 km/h (1 Bft)
12.12.2013 12:50 2,4 C 91 % 1029,0 hPa 0,0 l/m 2,9 km/h (1 Bft) NO 45 1,1 C 1,6 C 2,9 km/h (1 Bft)
12.12.2013 12:55 2,5 C 90 % 1029,0 hPa 0,0 l/m 3,7 km/h (1 Bft) NO 45 1,0 C 1,6 C 4,5 km/h (1 Bft)
12.12.2013 13:00 2,8 C 89 % 1029,0 hPa 0,0 l/m 3,4 km/h (1 Bft) O-NO 67 1,2 C 2,3 C 2,4 km/h (1 Bft)
12.12.2013 13:05 2,9 C 89 % 1028,8 hPa 0,0 l/m 3,4 km/h (1 Bft) O-NO 67 1,3 C 2,5 C 3,9 km/h (1 Bft)
12.12.2013 13:10 3,0 C 89 % 1028,8 hPa 0,0 l/m 3,7 km/h (1 Bft) O-NO 67 1,4 C 2,6 C 3,7 km/h (1 Bft)
12.12.2013 13:15 3,0 C 89 % 1028,8 hPa 0,0 l/m 3,4 km/h (1 Bft) O 90 1,4 C 2,8 C 3,1 km/h (1 Bft)
12.12.2013 13:20 3,1 C 88 % 1028,8 hPa 0,0 l/m 3,1 km/h (1 Bft) NO 45 1,3 C 3,2 C 2,4 km/h (1 Bft)
12.12.2013 13:25 3,2 C 88 % 1028,6 hPa 0,0 l/m 2,6 km/h (1 Bft) O 90 1,4 C 3,5 C 3,5 km/h (1 Bft)
12.12.2013 13:30 2,9 C 88 % 1028,6 hPa 0,0 l/m 1,3 km/h (1 Bft) N-NO 22 1,1 C 3,7 C 0,0 km/h (0 Bft)
12.12.2013 13:35 2,9 C 88 % 1028,6 hPa 0,0 l/m 0,5 km/h (0 Bft) O-SO 112 1,1 C 3,7 C 0,0 km/h (0 Bft)
12.12.2013 13:40 3,0 C 88 % 1028,6 hPa 0,0 l/m 0,0 km/h (0 Bft) NO 45 1,2 C 4,7 C 0,0 km/h (0 Bft)
12.12.2013 13:45 3,3 C 88 % 1028,8 hPa 0,0 l/m 0,0 km/h (0 Bft) O 90 1,5 C 6,5 C 0,0 km/h (0 Bft)
12.12.2013 13:50 3,7 C 88 % 1028,8 hPa 0,0 l/m 1,3 km/h (1 Bft) NO 45 1,9 C 8,7 C 0,0 km/h (0 Bft)
12.12.2013 13:55 3,5 C 88 % 1028,8 hPa 0,0 l/m 1,6 km/h (1 Bft) NO 45 1,7 C 9,6 C 3,4 km/h (1 Bft)
12.12.2013 14:00 4,9 C 86 % 1028,8 hPa 0,0 l/m 1,9 km/h (1 Bft) O 90 2,8 C 10,5 C 4,2 km/h (1 Bft)
12.12.2013 14:05 5,2 C 85 % 1028,7 hPa 0,0 l/m 3,2 km/h (1 Bft) O-NO 67 2,9 C 10,6 C 4,3 km/h (1 Bft)
12.12.2013 14:10 3,9 C 84 % 1028,7 hPa 0,0 l/m 2,6 km/h (1 Bft) N-NO 22 1,4 C 10,9 C 1,8 km/h (1 Bft)
12.12.2013 14:15 3,8 C 84 % 1028,7 hPa 0,0 l/m 1,4 km/h (1 Bft) NO 45 1,4 C 11,0 C 0,0 km/h (0 Bft)
12.12.2013 14:18 3,1 C 85 % 1028,7 hPa 0,0 l/m 0,5 km/h (0 Bft) O-NO 67 0,8 C 9,7 C 0,0 km/h (0 Bft)
12.12.2013 14:20 3,1 C 85 % 1028,7 hPa 0,0 l/m 0,5 km/h (0 Bft) O-NO 67 0,8 C 9,7 C 0,0 km/h (0 Bft)
12.12.2013 14:25 3,0 C 85 % 1028,4 hPa 0,0 l/m 0,2 km/h (0 Bft) O 90 0,7 C 8,8 C 0,0 km/h (0 Bft)
12.12.2013 14:30 3,1 C 86 % 1028,4 hPa 0,0 l/m 0,6 km/h (0 Bft) O-NO 67 1,0 C 7,9 C 3,1 km/h (1 Bft)
12.12.2013 14:35 3,3 C 86 % 1028,4 hPa 0,0 l/m 1,8 km/h (1 Bft) N-NO 22 1,2 C 7,9 C 3,2 km/h (1 Bft)
12.12.2013 14:40 3,1 C 86 % 1028,4 hPa 0,0 l/m 2,9 km/h (1 Bft) NO 45 1,0 C 8,8 C 3,2 km/h (1 Bft)
12.12.2013 14:45 3,1 C 87 % 1028,4 hPa 0,0 l/m 2,7 km/h (1 Bft) NO 45 1,2 C 9,0 C 2,9 km/h (1 Bft)
12.12.2013 14:50 3,0 C 87 % 1028,4 hPa 0,0 l/m 2,9 km/h (1 Bft) NO 45 1,1 C 8,1 C 3,2 km/h (1 Bft)
12.12.2013 14:55 3,1 C 87 % 1028,4 hPa 0,0 l/m 2,6 km/h (1 Bft) NO 45 1,2 C 7,4 C 2,3 km/h (1 Bft)
12.12.2013 15:00 3,0 C 87 % 1028,4 hPa 0,0 l/m 1,9 km/h (1 Bft) NO 45 1,1 C 6,8 C 2,1 km/h (1 Bft)
12.12.2013 15:05 2,8 C 88 % 1028,4 hPa 0,0 l/m 1,1 km/h (1 Bft) NO 45 1,0 C 5,9 C 0,0 km/h (0 Bft)
12.12.2013 15:10 2,2 C 88 % 1028,4 hPa 0,0 l/m 1,0 km/h (0 Bft) NO 45 0,4 C 4,6 C 2,9 km/h (1 Bft)
12.12.2013 15:15 2,4 C 88 % 1028,4 hPa 0,0 l/m 2,1 km/h (1 Bft) NO 45 0,6 C 3,9 C 3,4 km/h (1 Bft)
12.12.2013 15:20 2,2 C 88 % 1028,4 hPa 0,0 l/m 2,7 km/h (1 Bft) NO 45 0,4 C 3,2 C 1,6 km/h (1 Bft)
12.12.2013 15:25 2,2 C 89 % 1028,4 hPa 0,0 l/m 2,4 km/h (1 Bft) N-NO 22 0,6 C 2,8 C 1,9 km/h (1 Bft)
12.12.2013 15:30 1,8 C 89 % 1028,4 hPa 0,0 l/m 1,9 km/h (1 Bft) NO 45 0,2 C 2,4 C 2,3 km/h (1 Bft)
12.12.2013 15:35 1,6 C 89 % 1028,4 hPa 0,0 l/m 1,9 km/h (1 Bft) NO 45 -0,0 C 2,3 C 1,8 km/h (1 Bft)
12.12.2013 15:40 1,5 C 89 % 1028,4 hPa 0,0 l/m 1,8 km/h (1 Bft) N-NO 22 -0,1 C 1,9 C 0,0 km/h (0 Bft)
12.12.2013 15:45 0,6 C 89 % 1028,6 hPa 0,0 l/m 1,4 km/h (1 Bft) NO 45 -1,0 C 1,7 C 1,8 km/h (1 Bft)
12.12.2013 15:50 1,4 C 90 % 1028,6 hPa 0,0 l/m 1,1 km/h (1 Bft) O 90 -0,1 C 1,3 C 0,0 km/h (0 Bft)
12.12.2013 15:55 0,6 C 90 % 1028,6 hPa 0,0 l/m 1,0 km/h (0 Bft) O-NO 67 -0,8 C 0,9 C 0,0 km/h (0 Bft)
12.12.2013 16:00 0,8 C 91 % 1028,6 hPa 0,0 l/m 1,0 km/h (0 Bft) O-SO 112 -0,5 C 0,6 C 4,2 km/h (1 Bft)
12.12.2013 16:05 0,4 C 91 % 1029,1 hPa 0,0 l/m 1,4 km/h (1 Bft) O 90 -0,9 C 0,6 C 2,1 km/h (1 Bft)
12.12.2013 16:10 0,7 C 91 % 1029,1 hPa 0,0 l/m 1,6 km/h (1 Bft) O-NO 67 -0,6 C 0,3 C 0,0 km/h (0 Bft)
12.12.2013 16:15 0,1 C 91 % 1029,1 hPa 0,0 l/m 1,0 km/h (0 Bft) O 90 -1,2 C 0,0 C 3,5 km/h (1 Bft)
12.12.2013 16:20 0,4 C 91 % 1029,1 hPa 0,0 l/m 0,8 km/h (0 Bft) O-NO 67 -0,9 C -0,4 C 0,0 km/h (0 Bft)
12.12.2013 16:25 -0,2 C 91 % 1028,7 hPa 0,0 l/m 0,8 km/h (0 Bft) NO 45 -1,5 C -0,7 C 0,0 km/h (0 Bft)
12.12.2013 16:30 0,1 C 91 % 1028,7 hPa 0,0 l/m 1,1 km/h (1 Bft) O 90 -1,2 C -0,9 C 0,0 km/h (0 Bft)
12.12.2013 16:35 -0,8 C 91 % 1028,7 hPa 0,0 l/m 1,3 km/h (1 Bft) O-SO 112 -2,1 C -1,1 C 2,4 km/h (1 Bft)
12.12.2013 16:40 -0,2 C 91 % 1028,7 hPa 0,0 l/m 2,4 km/h (1 Bft) O-NO 67 -1,5 C -1,3 C 5,1 km/h (1 Bft)
12.12.2013 16:45 -1,0 C 91 % 1028,5 hPa 0,0 l/m 2,4 km/h (1 Bft) O-SO 112 -2,3 C -1,4 C 0,0 km/h (0 Bft)
12.12.2013 16:50 -1,8 C 91 % 1028,5 hPa 0,0 l/m 0,5 km/h (0 Bft) NO 45 -3,1 C -2,0 C 0,0 km/h (0 Bft)
12.12.2013 16:55 -1,8 C 91 % 1028,5 hPa 0,0 l/m 0,0 km/h (0 Bft) NO 45 -3,1 C -2,3 C 0,0 km/h (0 Bft)
12.12.2013 17:00 -1,9 C 91 % 1028,5 hPa 0,0 l/m 0,0 km/h (0 Bft) NO 45 -3,2 C -2,5 C 0,0 km/h (0 Bft)
12.12.2013 17:05 -2,0 C 91 % 1028,5 hPa 0,0 l/m 0,0 km/h (0 Bft) NO 45 -3,3 C -2,7 C 0,0 km/h (0 Bft)
12.12.2013 17:10 -2,3 C 92 % 1028,5 hPa 0,0 l/m 0,0 km/h (0 Bft) O-SO 112 -3,4 C -2,9 C 0,0 km/h (0 Bft)
12.12.2013 17:15 -2,5 C 92 % 1028,5 hPa 0,0 l/m 0,0 km/h (0 Bft) O-SO 112 -3,6 C -3,0 C 0,0 km/h (0 Bft)
12.12.2013 17:20 -3,0 C 92 % 1028,5 hPa 0,0 l/m 0,0 km/h (0 Bft) O-SO 112 -4,1 C -3,3 C 0,0 km/h (0 Bft)
12.12.2013 17:25 -3,3 C 92 % 1028,7 hPa 0,0 l/m 0,0 km/h (0 Bft) O-SO 112 -4,4 C -3,5 C 0,0 km/h (0 Bft)
12.12.2013 17:30 -3,4 C 92 % 1028,7 hPa 0,0 l/m 0,0 km/h (0 Bft) O-SO 112 -4,5 C -3,7 C 0,0 km/h (0 Bft)
12.12.2013 17:35 -3,6 C 92 % 1028,7 hPa 0,0 l/m 0,0 km/h (0 Bft) O-SO 112 -4,7 C -3,8 C 0,0 km/h (0 Bft)
12.12.2013 17:40 -3,3 C 92 % 1028,7 hPa 0,0 l/m 0,0 km/h (0 Bft) NO 45 -4,4 C -3,9 C 0,0 km/h (0 Bft)
12.12.2013 17:45 -3,4 C 92 % 1028,4 hPa 0,0 l/m 0,0 km/h (0 Bft) NO 45 -4,5 C -3,9 C 0,0 km/h (0 Bft)
12.12.2013 17:50 -3,5 C 92 % 1028,4 hPa 0,0 l/m 0,0 km/h (0 Bft) NO 45 -4,6 C -3,9 C 0,0 km/h (0 Bft)
12.12.2013 17:55 -2,8 C 93 % 1028,4 hPa 0,0 l/m 0,0 km/h (0 Bft) NO 45 -3,8 C -4,0 C 0,0 km/h (0 Bft)
12.12.2013 18:00 -1,9 C 93 % 1028,4 hPa 0,0 l/m 1,6 km/h (1 Bft) O-NO 67 -2,9 C -3,6 C 2,9 km/h (1 Bft)
12.12.2013 18:05 -2,5 C 93 % 1028,4 hPa 0,0 l/m 1,8 km/h (1 Bft) O-SO 112 -3,5 C -3,4 C 0,0 km/h (0 Bft)
12.12.2013 18:10 -3,6 C 92 % 1028,4 hPa 0,0 l/m 0,3 km/h (0 Bft) O-SO 112 -4,7 C -3,7 C 0,0 km/h (0 Bft)
12.12.2013 18:15 -3,6 C 92 % 1028,4 hPa 0,0 l/m 0,0 km/h (0 Bft) O-SO 112 -4,7 C -3,9 C 0,0 km/h (0 Bft)
12.12.2013 18:20 -3,2 C 93 % 1028,4 hPa 0,0 l/m 0,0 km/h (0 Bft) O-SO 112 -4,2 C -4,0 C 0,0 km/h (0 Bft)
12.12.2013 18:25 -3,5 C 93 % 1028,4 hPa 0,0 l/m 0,0 km/h (0 Bft) O-SO 112 -4,5 C -4,0 C 0,0 km/h (0 Bft)
12.12.2013 18:30 -2,7 C 93 % 1028,4 hPa 0,0 l/m 0,0 km/h (0 Bft) O-SO 112 -3,7 C -4,0 C 0,0 km/h (0 Bft)
12.12.2013 18:35 -3,3 C 93 % 1028,4 hPa 0,0 l/m 0,2 km/h (0 Bft) SO 135 -4,3 C -4,0 C 0,0 km/h (0 Bft)
12.12.2013 18:40 -3,8 C 93 % 1028,4 hPa 0,0 l/m 0,2 km/h (0 Bft) SO 135 -4,8 C -4,1 C 0,0 km/h (0 Bft)
12.12.2013 18:45 -3,8 C 93 % 1028,2 hPa 0,0 l/m 0,0 km/h (0 Bft) O-SO 112 -4,8 C -4,1 C 0,0 km/h (0 Bft)
12.12.2013 18:50 -3,8 C 93 % 1028,2 hPa 0,0 l/m 0,0 km/h (0 Bft) O-SO 112 -4,8 C -4,0 C 0,0 km/h (0 Bft)
12.12.2013 18:55 -3,9 C 93 % 1028,2 hPa 0,0 l/m 0,0 km/h (0 Bft) N-NO 22 -4,9 C -3,9 C 0,0 km/h (0 Bft)
12.12.2013 19:00 -3,9 C 93 % 1028,2 hPa 0,0 l/m 0,0 km/h (0 Bft) N-NO 22 -4,9 C -3,9 C 0,0 km/h (0 Bft)
12.12.2013 19:05 -4,1 C 93 % 1028,2 hPa 0,0 l/m 0,0 km/h (0 Bft) N-NO 22 -5,1 C -4,0 C 0,0 km/h (0 Bft)
12.12.2013 19:10 -3,1 C 93 % 1028,2 hPa 0,0 l/m 1,0 km/h (0 Bft) O-SO 112 -4,1 C -3,8 C 4,3 km/h (1 Bft)
12.12.2013 19:15 -2,7 C 93 % 1028,2 hPa 0,0 l/m 1,6 km/h (1 Bft) O-SO 112 -3,7 C -3,6 C 0,0 km/h (0 Bft)
12.12.2013 19:18 -3,9 C 93 % 1028,2 hPa 0,0 l/m 1,0 km/h (0 Bft) NO 45 -4,9 C -3,8 C 0,0 km/h (0 Bft)
12.12.2013 19:20 -3,9 C 93 % 1028,2 hPa 0,0 l/m 1,0 km/h (0 Bft) NO 45 -4,9 C -3,8 C 0,0 km/h (0 Bft)
12.12.2013 19:25 -4,2 C 93 % 1028,1 hPa 0,0 l/m 0,0 km/h (0 Bft) NO 45 -5,2 C -3,9 C 0,0 km/h (0 Bft)
12.12.2013 19:30 -3,9 C 93 % 1028,1 hPa 0,0 l/m 0,0 km/h (0 Bft) O-SO 112 -4,9 C -3,9 C 0,0 km/h (0 Bft)
12.12.2013 19:35 -3,5 C 93 % 1028,1 hPa 0,0 l/m 0,0 km/h (0 Bft) O-SO 112 -4,5 C -3,9 C 0,0 km/h (0 Bft)
12.12.2013 19:40 -4,2 C 93 % 1028,1 hPa 0,0 l/m 0,0 km/h (0 Bft) O-NO 67 -5,2 C -4,0 C 0,0 km/h (0 Bft)
12.12.2013 19:45 -4,2 C 93 % 1028,1 hPa 0,0 l/m 0,0 km/h (0 Bft) NO 45 -5,2 C -4,1 C 0,0 km/h (0 Bft)
12.12.2013 19:50 -4,5 C 93 % 1028,1 hPa 0,0 l/m 0,0 km/h (0 Bft) O 90 -5,5 C -4,3 C 0,0 km/h (0 Bft)
12.12.2013 19:55 -4,7 C 92 % 1028,1 hPa 0,0 l/m 0,0 km/h (0 Bft) O-SO 112 -5,8 C -4,4 C 0,0 km/h (0 Bft)
12.12.2013 20:00 -4,7 C 92 % 1028,1 hPa 0,0 l/m 0,0 km/h (0 Bft) O-SO 112 -5,8 C -4,3 C 0,0 km/h (0 Bft)
12.12.2013 20:05 -4,5 C 93 % 1028,1 hPa 0,0 l/m 0,0 km/h (0 Bft) O-SO 112 -5,5 C -4,4 C 0,0 km/h (0 Bft)
12.12.2013 20:10 -5,0 C 92 % 1028,1 hPa 0,0 l/m 0,0 km/h (0 Bft) O-SO 112 -6,1 C -4,5 C 0,0 km/h (0 Bft)
12.12.2013 20:15 -4,6 C 92 % 1028,1 hPa 0,0 l/m 0,0 km/h (0 Bft) O 90 -5,7 C -4,6 C 0,0 km/h (0 Bft)
12.12.2013 20:20 -4,5 C 93 % 1028,1 hPa 0,0 l/m 0,0 km/h (0 Bft) O 90 -5,5 C -4,6 C 0,0 km/h (0 Bft)
12.12.2013 20:25 -4,3 C 93 % 1028,1 hPa 0,0 l/m 0,0 km/h (0 Bft) O-SO 112 -5,3 C -4,6 C 0,0 km/h (0 Bft)
12.12.2013 20:30 -4,8 C 93 % 1028,1 hPa 0,0 l/m 0,0 km/h (0 Bft) NO 45 -5,8 C -4,8 C 0,0 km/h (0 Bft)
12.12.2013 20:35 -3,5 C 93 % 1028,1 hPa 0,0 l/m 1,1 km/h (1 Bft) O 90 -4,5 C -4,8 C 7,1 km/h (2 Bft)
12.12.2013 20:40 -2,8 C 93 % 1028,1 hPa 0,0 l/m 3,2 km/h (1 Bft) O-NO 67 -3,8 C -4,9 C 2,9 km/h (1 Bft)
12.12.2013 20:45 -3,8 C 93 % 1028,0 hPa 0,0 l/m 2,4 km/h (1 Bft) O-SO 112 -4,8 C -4,3 C 0,0 km/h (0 Bft)
12.12.2013 20:50 -4,3 C 93 % 1028,0 hPa 0,0 l/m 0,3 km/h (0 Bft) NO 45 -5,3 C -4,3 C 0,0 km/h (0 Bft)
12.12.2013 20:55 -3,9 C 93 % 1028,0 hPa 0,0 l/m 0,2 km/h (0 Bft) O-NO 67 -4,9 C -4,4 C 5,6 km/h (1 Bft)
12.12.2013 21:00 -3,5 C 93 % 1028,0 hPa 0,0 l/m 1,3 km/h (1 Bft) SO 135 -4,5 C -4,1 C 0,0 km/h (0 Bft)
12.12.2013 21:05 -3,5 C 93 % 1027,9 hPa 0,0 l/m 1,4 km/h (1 Bft) N-NO 22 -4,5 C -4,1 C 0,0 km/h (0 Bft)
12.12.2013 21:10 -3,9 C 93 % 1027,9 hPa 0,0 l/m 0,3 km/h (0 Bft) NO 45 -4,9 C -4,3 C 1,9 km/h (1 Bft)
12.12.2013 21:15 -3,6 C 93 % 1027,9 hPa 0,0 l/m 0,3 km/h (0 Bft) N 360 -4,6 C -4,2 C 0,0 km/h (0 Bft)
12.12.2013 21:20 -3,6 C 93 % 1027,9 hPa 0,0 l/m 0,3 km/h (0 Bft) NO 45 -4,6 C -4,2 C 0,0 km/h (0 Bft)
12.12.2013 21:25 -3,6 C 93 % 1028,0 hPa 0,0 l/m 0,0 km/h (0 Bft) NO 45 -4,6 C -4,5 C 0,0 km/h (0 Bft)
12.12.2013 21:30 -4,2 C 93 % 1028,0 hPa 0,0 l/m 0,0 km/h (0 Bft) NO 45 -5,2 C -4,6 C 0,0 km/h (0 Bft)
12.12.2013 21:35 -3,7 C 93 % 1028,0 hPa 0,0 l/m 0,0 km/h (0 Bft) O 90 -4,7 C -4,7 C 0,0 km/h (0 Bft)
12.12.2013 21:40 -3,9 C 93 % 1028,0 hPa 0,0 l/m 0,2 km/h (0 Bft) O-SO 112 -4,9 C -4,6 C 0,0 km/h (0 Bft)
12.12.2013 21:45 -4,3 C 93 % 1027,9 hPa 0,0 l/m 0,2 km/h (0 Bft) O 90 -5,3 C -4,5 C 0,0 km/h (0 Bft)
12.12.2013 21:50 -4,1 C 93 % 1027,9 hPa 0,0 l/m 0,2 km/h (0 Bft) O-SO 112 -5,1 C -4,5 C 0,0 km/h (0 Bft)
12.12.2013 21:55 -4,4 C 93 % 1027,9 hPa 0,0 l/m 0,2 km/h (0 Bft) N-NO 22 -5,4 C -4,6 C 0,0 km/h (0 Bft)
12.12.2013 22:00 -4,7 C 92 % 1027,9 hPa 0,0 l/m 0,0 km/h (0 Bft) N-NO 22 -5,8 C -4,7 C 0,0 km/h (0 Bft)
12.12.2013 22:05 -4,7 C 92 % 1027,8 hPa 0,0 l/m 0,0 km/h (0 Bft) N-NO 22 -5,8 C -4,8 C 0,0 km/h (0 Bft)
12.12.2013 22:10 -4,9 C 92 % 1027,8 hPa 0,0 l/m 0,0 km/h (0 Bft) N-NO 22 -6,0 C -4,9 C 0,0 km/h (0 Bft)
12.12.2013 22:15 -4,7 C 92 % 1027,8 hPa 0,0 l/m 0,0 km/h (0 Bft) N-NO 22 -5,8 C -4,9 C 0,0 km/h (0 Bft)
12.12.2013 22:20 -4,9 C 92 % 1027,8 hPa 0,0 l/m 0,0 km/h (0 Bft) N-NO 22 -6,0 C -5,0 C 0,0 km/h (0 Bft)
12.12.2013 22:25 -4,8 C 92 % 1028,0 hPa 0,0 l/m 0,0 km/h (0 Bft) N-NO 22 -5,9 C -5,1 C 0,0 km/h (0 Bft)
12.12.2013 22:30 -4,8 C 92 % 1028,0 hPa 0,0 l/m 0,0 km/h (0 Bft) N-NO 22 -5,9 C -5,1 C 0,0 km/h (0 Bft)
12.12.2013 22:35 -4,5 C 92 % 1028,0 hPa 0,0 l/m 0,0 km/h (0 Bft) N-NO 22 -5,6 C -5,1 C 0,0 km/h (0 Bft)
12.12.2013 22:40 -4,8 C 92 % 1028,0 hPa 0,0 l/m 0,0 km/h (0 Bft) O-SO 112 -5,9 C -5,1 C 0,0 km/h (0 Bft)
12.12.2013 22:45 -4,9 C 92 % 1027,9 hPa 0,0 l/m 0,0 km/h (0 Bft) O-SO 112 -6,0 C -5,1 C 0,0 km/h (0 Bft)
12.12.2013 22:50 -5,3 C 92 % 1027,9 hPa 0,0 l/m 0,0 km/h (0 Bft) O-SO 112 -6,4 C -5,3 C 0,0 km/h (0 Bft)
12.12.2013 22:55 -5,4 C 92 % 1027,9 hPa 0,0 l/m 0,0 km/h (0 Bft) O-SO 112 -6,5 C -5,4 C 0,0 km/h (0 Bft)
12.12.2013 23:00 -5,2 C 92 % 1027,9 hPa 0,0 l/m 0,0 km/h (0 Bft) NO 45 -6,3 C -5,4 C 0,0 km/h (0 Bft)
12.12.2013 23:05 -5,0 C 92 % 1027,8 hPa 0,0 l/m 0,2 km/h (0 Bft) N-NO 22 -6,1 C -5,3 C 0,0 km/h (0 Bft)
12.12.2013 23:10 -4,9 C 92 % 1027,8 hPa 0,0 l/m 0,2 km/h (0 Bft) O 90 -6,0 C -5,2 C 2,6 km/h (1 Bft)
12.12.2013 23:15 -4,2 C 92 % 1027,8 hPa 0,0 l/m 0,2 km/h (0 Bft) O-NO 67 -5,3 C -5,2 C 0,0 km/h (0 Bft)
12.12.2013 23:20 -4,7 C 92 % 1027,8 hPa 0,0 l/m 0,3 km/h (0 Bft) NO 45 -5,8 C -5,1 C 1,8 km/h (1 Bft)
12.12.2013 23:25 -4,4 C 92 % 1027,9 hPa 0,0 l/m 0,3 km/h (0 Bft) NO 45 -5,5 C -4,9 C 0,0 km/h (0 Bft)
12.12.2013 23:30 -4,9 C 92 % 1027,9 hPa 0,0 l/m 0,2 km/h (0 Bft) O 90 -6,0 C -5,1 C 1,9 km/h (1 Bft)
12.12.2013 23:35 -4,9 C 92 % 1027,9 hPa 0,0 l/m 0,0 km/h (0 Bft) O 90 -6,0 C -5,1 C 0,0 km/h (0 Bft)
12.12.2013 23:40 -4,9 C 92 % 1027,9 hPa 0,0 l/m 0,0 km/h (0 Bft) O 90 -6,0 C -5,3 C 0,0 km/h (0 Bft)
12.12.2013 23:45 -5,0 C 92 % 1027,8 hPa 0,0 l/m 0,0 km/h (0 Bft) NO 45 -6,1 C -5,3 C 0,0 km/h (0 Bft)
12.12.2013 23:50 -4,9 C 92 % 1027,8 hPa 0,0 l/m 0,0 km/h (0 Bft) NO 45 -6,0 C -5,4 C 0,0 km/h (0 Bft)
12.12.2013 23:55 -5,0 C 92 % 1027,8 hPa 0,0 l/m 0,0 km/h (0 Bft) NO 45 -6,1 C -5,4 C 0,0 km/h (0 Bft)
_ Min-Zeit 08:25 14:15 23:55 - 23:55 - - 08:25 08:25 23:55
Minimum _ -6,9 C 84 % 1027,8 hPa - 0,0 km/h (0 Bft) - - -8,4 C -6,4 C 0,0 km/h (0 Bft)
_ Max-Zeit 14:05 12:15 01:00 23:55 02:35 - - 14:05 14:15 02:30
Maximum _ 5,2 C 94 % 1031,7 hPa 0,0 l/m 6,0 km/h
O-NO (2 Bft)
- - 2,9 C 11,0 C 8,7 km/h
O (2 Bft)
Durchschnitt _ -3,2 C 91 % 1029,4 hPa #0,0 l/m 0,7 km/h (0 Bft) NO - -4,5 C -2,9 C 0,9 km/h (0 Bft)